Time,TemperatureF,DewpointF,PressureIn,WindDirection,WindDirectionDegrees,WindSpeedMPH,WindSpeedGustMPH,Humidity,HourlyPrecipIn,Conditions,Clouds,dailyrainin,SoftwareType,DateUTC
2013-06-26 00:00:00,68.9,66.5,28.95,WNW,292,1.0,1.0,92,0.04,,,0.00,Wunderground v.1.15,2013-06-26 04:00:00,
2013-06-26 00:04:00,69.0,66.6,28.95,WNW,300,1.0,1.0,92,0.00,,,0.00,Wunderground v.1.15,2013-06-26 04:04:00,
2013-06-26 00:09:00,69.0,66.6,28.95,WNW,301,1.0,2.0,92,0.00,,,0.00,Wunderground v.1.15,2013-06-26 04:09:00,
2013-06-26 00:14:00,69.0,66.6,28.95,WNW,296,1.0,2.0,92,0.00,,,0.00,Wunderground v.1.15,2013-06-26 04:14:00,
2013-06-26 00:20:00,69.1,66.7,28.95,WNW,288,1.0,1.0,92,0.00,,,0.00,Wunderground v.1.15,2013-06-26 04:20:00,
2013-06-26 00:25:00,69.1,67.0,28.94,WNW,286,1.0,1.0,93,0.00,,,0.00,Wunderground v.1.15,2013-06-26 04:25:00,
2013-06-26 00:30:00,69.1,67.0,28.94,WNW,296,1.0,1.0,93,0.00,,,0.00,Wunderground v.1.15,2013-06-26 04:30:00,
2013-06-26 00:35:00,69.1,67.0,28.94,WNW,292,1.0,1.0,93,0.00,,,0.00,Wunderground v.1.15,2013-06-26 04:35:00,
2013-06-26 00:44:00,69.0,66.9,28.94,WNW,291,1.0,5.0,93,0.00,,,0.00,Wunderground v.1.15,2013-06-26 04:44:00,
2013-06-26 00:49:00,69.0,66.9,28.94,WNW,286,1.0,1.0,93,0.00,,,0.00,Wunderground v.1.15,2013-06-26 04:49:00,
2013-06-26 00:55:00,68.9,66.8,28.94,WNW,297,1.0,1.0,93,0.00,,,0.00,Wunderground v.1.15,2013-06-26 04:55:00,
2013-06-26 01:00:00,68.9,66.8,28.94,WNW,283,1.0,1.0,93,0.00,,,0.00,Wunderground v.1.15,2013-06-26 05:00:00,
2013-06-26 01:05:00,69.0,66.9,28.94,NW,321,1.0,8.0,93,0.00,,,0.00,Wunderground v.1.15,2013-06-26 05:05:00,
2013-06-26 01:10:00,69.0,66.9,28.94,NW,319,1.0,8.0,93,0.00,,,0.00,Wunderground v.1.15,2013-06-26 05:10:00,
2013-06-26 01:15:00,69.0,66.9,28.94,NNW,335,1.0,8.0,93,0.00,,,0.00,Wunderground v.1.15,2013-06-26 05:15:00,
2013-06-26 01:20:00,69.0,66.9,28.95,NW,319,1.0,1.0,93,0.00,,,0.00,Wunderground v.1.15,2013-06-26 05:20:00,
2013-06-26 01:30:00,69.1,67.0,28.94,NW,318,1.0,8.0,93,0.00,,,0.00,Wunderground v.1.15,2013-06-26 05:30:00,
2013-06-26 01:35:00,69.1,66.7,28.95,NW,306,1.0,8.0,92,0.00,,,0.00,Wunderground v.1.15,2013-06-26 05:35:00,
2013-06-26 01:40:00,69.2,66.8,28.94,WNW,292,2.0,8.0,92,0.00,,,0.00,Wunderground v.1.15,2013-06-26 05:40:00,
2013-06-26 01:45:00,69.2,66.8,28.94,NW,306,2.0,8.0,92,0.00,,,0.00,Wunderground v.1.15,2013-06-26 05:45:00,
2013-06-26 01:50:00,69.3,67.2,28.94,NW,312,2.0,2.0,93,0.00,,,0.00,Wunderground v.1.15,2013-06-26 05:50:00,
2013-06-26 01:59:00,69.5,67.1,28.94,West,275,2.0,2.0,92,0.00,,,0.00,Wunderground v.1.15,2013-06-26 05:59:00,
2013-06-26 02:04:00,69.5,67.1,28.94,NNW,335,2.0,3.0,92,0.00,,,0.00,Wunderground v.1.15,2013-06-26 06:04:00,
2013-06-26 02:09:00,69.6,67.2,28.94,WNW,288,2.0,2.0,92,0.00,,,0.00,Wunderground v.1.15,2013-06-26 06:09:00,
2013-06-26 02:14:00,69.7,67.3,28.94,NW,325,2.0,5.0,92,0.00,,,0.00,Wunderground v.1.15,2013-06-26 06:14:00,
2013-06-26 02:19:00,69.7,67.3,28.94,NW,309,2.0,8.0,92,0.00,,,0.00,Wunderground v.1.15,2013-06-26 06:19:00,
2013-06-26 02:25:00,69.8,67.1,28.94,NW,318,2.0,8.0,91,0.00,,,0.00,Wunderground v.1.15,2013-06-26 06:25:00,
2013-06-26 02:34:00,69.8,67.4,28.94,WNW,290,2.0,8.0,92,0.00,,,0.00,Wunderground v.1.15,2013-06-26 06:34:00,
2013-06-26 02:39:00,69.9,67.2,28.93,NW,319,2.0,2.0,91,0.00,,,0.00,Wunderground v.1.15,2013-06-26 06:39:00,
2013-06-26 02:44:00,69.9,67.2,28.94,NNW,331,3.0,3.0,91,0.00,,,0.00,Wunderground v.1.15,2013-06-26 06:44:00,
2013-06-26 02:49:00,69.9,67.2,28.93,NW,313,3.0,3.0,91,0.00,,,0.00,Wunderground v.1.15,2013-06-26 06:49:00,
2013-06-26 02:54:00,69.9,67.2,28.94,NNW,333,2.0,8.0,91,0.00,,,0.00,Wunderground v.1.15,2013-06-26 06:54:00,
2013-06-26 03:04:00,69.9,67.2,28.93,NW,311,1.0,4.0,91,0.00,,,0.00,Wunderground v.1.15,2013-06-26 07:04:00,
2013-06-26 03:09:00,69.9,67.2,28.93,NW,306,1.0,8.0,91,0.00,,,0.00,Wunderground v.1.15,2013-06-26 07:09:00,
2013-06-26 03:14:00,69.9,67.2,28.93,NW,311,1.0,8.0,91,0.00,,,0.00,Wunderground v.1.15,2013-06-26 07:14:00,
2013-06-26 03:19:00,69.9,67.2,28.93,WNW,290,1.0,1.0,91,0.00,,,0.00,Wunderground v.1.15,2013-06-26 07:19:00,
2013-06-26 03:24:00,69.8,67.1,28.93,NNW,338,1.0,6.0,91,0.00,,,0.00,Wunderground v.1.15,2013-06-26 07:24:00,
2013-06-26 03:29:00,69.8,67.1,28.93,NW,311,1.0,8.0,91,0.00,,,0.00,Wunderground v.1.15,2013-06-26 07:29:00,
2013-06-26 03:39:00,69.8,67.1,28.93,NW,315,2.0,2.0,91,0.00,,,0.00,Wunderground v.1.15,2013-06-26 07:39:00,
2013-06-26 03:44:00,69.8,67.1,28.93,NW,324,2.0,8.0,91,0.00,,,0.00,Wunderground v.1.15,2013-06-26 07:44:00,
2013-06-26 03:49:00,69.7,67.0,28.93,NW,325,1.0,1.0,91,0.00,,,0.00,Wunderground v.1.15,2013-06-26 07:49:00,
2013-06-26 03:54:00,69.7,67.0,28.93,WNW,293,1.0,8.0,91,0.00,,,0.00,Wunderground v.1.15,2013-06-26 07:54:00,
2013-06-26 03:59:00,69.6,67.2,28.93,NW,313,1.0,1.0,92,0.00,,,0.00,Wunderground v.1.15,2013-06-26 07:59:00,
2013-06-26 04:05:00,69.6,67.2,28.93,WNW,300,1.0,8.0,92,0.00,,,0.00,Wunderground v.1.15,2013-06-26 08:05:00,
2013-06-26 04:10:00,69.5,67.1,28.93,NW,304,1.0,1.0,92,0.00,,,0.00,Wunderground v.1.15,2013-06-26 08:10:00,
2013-06-26 04:15:00,69.4,67.0,28.93,WNW,293,1.0,8.0,92,0.00,,,0.00,Wunderground v.1.15,2013-06-26 08:15:00,
2013-06-26 04:20:00,69.3,66.9,28.93,NW,311,1.0,8.0,92,0.00,,,0.00,Wunderground v.1.15,2013-06-26 08:20:00,
2013-06-26 04:25:00,69.2,66.8,28.92,NNW,336,1.0,8.0,92,0.00,,,0.00,Wunderground v.1.15,2013-06-26 08:25:00,
2013-06-26 04:30:00,69.2,67.1,28.92,WNW,290,1.0,1.0,93,0.00,,,0.00,Wunderground v.1.15,2013-06-26 08:30:00,
2013-06-26 04:40:00,69.0,66.9,28.93,WNW,293,3.0,3.0,93,0.00,,,0.00,Wunderground v.1.15,2013-06-26 08:40:00,
2013-06-26 04:45:00,69.0,66.9,28.93,WNW,294,2.0,8.0,93,0.00,,,0.00,Wunderground v.1.15,2013-06-26 08:45:00,
2013-06-26 04:50:00,68.9,66.8,28.93,NW,305,2.0,2.0,93,0.00,,,0.00,Wunderground v.1.15,2013-06-26 08:50:00,
2013-06-26 04:55:00,68.9,66.8,28.93,WNW,286,1.0,8.0,93,0.00,,,0.00,Wunderground v.1.15,2013-06-26 08:55:00,
2013-06-26 05:00:00,68.9,67.1,28.93,NW,306,2.0,2.0,94,0.00,,,0.00,Wunderground v.1.15,2013-06-26 09:00:00,
2013-06-26 05:05:00,68.8,67.0,28.94,NW,304,2.0,8.0,94,0.00,,,0.00,Wunderground v.1.15,2013-06-26 09:05:00,
2013-06-26 05:15:00,68.7,66.9,28.94,WNW,294,2.0,8.0,94,0.00,,,0.00,Wunderground v.1.15,2013-06-26 09:15:00,
2013-06-26 05:20:00,68.7,66.9,28.94,WNW,285,3.0,8.0,94,0.00,,,0.00,Wunderground v.1.15,2013-06-26 09:20:00,
2013-06-26 05:25:00,68.6,66.8,28.94,WNW,284,1.0,8.0,94,0.00,,,0.00,Wunderground v.1.15,2013-06-26 09:25:00,
2013-06-26 05:30:00,68.6,66.8,28.94,NW,304,2.0,2.0,94,0.00,,,0.00,Wunderground v.1.15,2013-06-26 09:30:00,
2013-06-26 05:35:00,68.6,66.8,28.94,WNW,291,1.0,8.0,94,0.00,,,0.00,Wunderground v.1.15,2013-06-26 09:35:00,
2013-06-26 05:44:00,68.7,66.9,28.94,WNW,296,1.0,8.0,94,0.00,,,0.00,Wunderground v.1.15,2013-06-26 09:44:00,
2013-06-26 05:49:00,68.6,66.8,28.94,WNW,294,1.0,8.0,94,0.00,,,0.00,Wunderground v.1.15,2013-06-26 09:49:00,
2013-06-26 05:54:00,68.6,66.8,28.94,WNW,292,2.0,8.0,94,0.00,,,0.00,Wunderground v.1.15,2013-06-26 09:54:00,
2013-06-26 05:59:00,68.7,66.9,28.95,WNW,297,2.0,8.0,94,0.00,,,0.00,Wunderground v.1.15,2013-06-26 09:59:00,
2013-06-26 06:04:00,68.7,66.9,28.95,NW,325,2.0,8.0,94,0.00,,,0.00,Wunderground v.1.15,2013-06-26 10:04:00,
2013-06-26 06:09:00,68.8,67.3,28.95,NW,308,2.0,2.0,95,0.00,,,0.00,Wunderground v.1.15,2013-06-26 10:09:00,
2013-06-26 06:19:00,68.9,67.4,28.94,NW,323,1.0,8.0,95,0.00,,,0.00,Wunderground v.1.15,2013-06-26 10:19:00,
2013-06-26 06:24:00,69.0,67.5,28.95,NW,308,1.0,8.0,95,0.00,,,0.00,Wunderground v.1.15,2013-06-26 10:24:00,
2013-06-26 06:29:00,69.1,67.6,28.95,WNW,296,1.0,1.0,95,0.00,,,0.00,Wunderground v.1.15,2013-06-26 10:29:00,
2013-06-26 06:34:00,69.2,67.7,28.94,WNW,300,1.0,8.0,95,0.00,,,0.00,Wunderground v.1.15,2013-06-26 10:34:00,
2013-06-26 06:39:00,69.4,67.9,28.94,WNW,299,2.0,2.0,95,0.00,,,0.00,Wunderground v.1.15,2013-06-26 10:39:00,
2013-06-26 06:49:00,69.7,68.2,28.95,WNW,292,1.0,1.0,95,0.00,,,0.00,Wunderground v.1.15,2013-06-26 10:49:00,
2013-06-26 06:54:00,69.7,67.9,28.95,WNW,285,2.0,2.0,94,0.00,,,0.00,Wunderground v.1.15,2013-06-26 10:54:00,
2013-06-26 06:59:00,69.8,68.0,28.95,WNW,297,2.0,2.0,94,0.00,,,0.00,Wunderground v.1.15,2013-06-26 10:59:00,
2013-06-26 07:04:00,69.9,68.1,28.95,WNW,292,1.0,8.0,94,0.00,,,0.00,Wunderground v.1.15,2013-06-26 11:04:00,
2013-06-26 07:09:00,70.0,68.2,28.95,WNW,291,1.0,1.0,94,0.00,,,0.00,Wunderground v.1.15,2013-06-26 11:09:00,
2013-06-26 07:20:00,70.2,68.4,28.95,NW,313,1.0,1.0,94,0.00,,,0.00,Wunderground v.1.15,2013-06-26 11:20:00,
2013-06-26 07:25:00,70.5,68.4,28.95,WNW,292,1.0,8.0,93,0.00,,,0.00,Wunderground v.1.15,2013-06-26 11:25:00,
2013-06-26 07:30:00,70.7,68.6,28.95,NW,308,2.0,8.0,93,0.00,,,0.00,Wunderground v.1.15,2013-06-26 11:30:00,
2013-06-26 07:39:00,71.1,68.7,28.95,NW,304,2.0,2.0,92,0.00,,,0.00,Wunderground v.1.15,2013-06-26 11:39:00,
2013-06-26 07:44:00,71.3,68.5,28.95,NW,304,2.0,8.0,91,0.00,,,0.00,Wunderground v.1.15,2013-06-26 11:44:00,
2013-06-26 07:50:00,71.5,68.7,28.95,West,266,2.0,2.0,91,0.00,,,0.00,Wunderground v.1.15,2013-06-26 11:50:00,
2013-06-26 07:55:00,71.6,68.8,28.95,WNW,292,1.0,5.0,91,0.00,,,0.00,Wunderground v.1.15,2013-06-26 11:55:00,
2013-06-26 08:00:00,71.8,69.0,28.95,WNW,284,2.0,8.0,91,0.00,,,0.00,Wunderground v.1.15,2013-06-26 12:00:00,
2013-06-26 08:05:00,71.9,68.8,28.96,West,281,2.0,8.0,90,0.00,,,0.00,Wunderground v.1.15,2013-06-26 12:05:00,
2013-06-26 08:10:00,72.0,68.9,28.96,NNW,333,2.0,2.0,90,0.00,,,0.00,Wunderground v.1.15,2013-06-26 12:10:00,
2013-06-26 08:15:00,72.4,69.3,28.96,NW,314,2.0,8.0,90,0.00,,,0.00,Wunderground v.1.15,2013-06-26 12:15:00,
2013-06-26 08:25:00,73.0,69.9,28.96,WNW,285,3.0,8.0,90,0.00,,,0.00,Wunderground v.1.15,2013-06-26 12:25:00,
2013-06-26 08:30:00,73.1,69.7,28.96,NW,305,3.0,3.0,89,0.00,,,0.00,Wunderground v.1.15,2013-06-26 12:30:00,
2013-06-26 08:35:00,72.9,69.1,28.95,WNW,300,2.0,8.0,88,0.00,,,0.00,Wunderground v.1.15,2013-06-26 12:35:00,
2013-06-26 08:40:00,72.6,69.2,28.95,WNW,299,2.0,8.0,89,0.00,,,0.00,Wunderground v.1.15,2013-06-26 12:40:00,
2013-06-26 08:45:00,72.5,69.1,28.95,NW,308,1.0,8.0,89,0.00,,,0.00,Wunderground v.1.15,2013-06-26 12:45:00,
2013-06-26 08:50:00,72.3,68.9,28.95,NW,319,1.0,8.0,89,0.00,,,0.00,Wunderground v.1.15,2013-06-26 12:50:00,
2013-06-26 09:00:00,72.4,69.0,28.95,WNW,297,2.0,2.0,89,0.00,,,0.00,Wunderground v.1.15,2013-06-26 13:00:00,
2013-06-26 09:05:00,72.3,68.9,28.95,WNW,295,2.0,8.0,89,0.00,,,0.00,Wunderground v.1.15,2013-06-26 13:05:00,
2013-06-26 09:10:00,72.3,68.9,28.96,WNW,294,1.0,1.0,89,0.00,,,0.00,Wunderground v.1.15,2013-06-26 13:10:00,
2013-06-26 09:15:00,72.4,69.0,28.95,WNW,292,1.0,8.0,89,0.00,,,0.00,Wunderground v.1.15,2013-06-26 13:15:00,
2013-06-26 09:20:00,72.4,69.0,28.95,NW,325,1.0,8.0,89,0.00,,,0.00,Wunderground v.1.15,2013-06-26 13:20:00,
2013-06-26 09:30:00,73.3,69.9,28.95,NNW,340,2.0,8.0,89,0.00,,,0.00,Wunderground v.1.15,2013-06-26 13:30:00,
2013-06-26 09:35:00,73.8,70.0,28.95,NNW,327,2.0,8.0,88,0.00,,,0.00,Wunderground v.1.15,2013-06-26 13:35:00,
2013-06-26 09:40:00,74.7,70.9,28.95,NW,314,2.0,8.0,88,0.00,,,0.00,Wunderground v.1.15,2013-06-26 13:40:00,
2013-06-26 09:45:00,75.9,71.4,28.95,NW,326,2.0,8.0,86,0.00,,,0.00,Wunderground v.1.15,2013-06-26 13:45:00,
2013-06-26 09:50:00,77.1,71.9,28.95,NNW,340,2.0,2.0,84,0.00,,,0.00,Wunderground v.1.15,2013-06-26 13:50:00,
2013-06-26 09:55:00,78.0,71.7,28.95,NNW,348,3.0,8.0,81,0.00,,,0.00,Wunderground v.1.15,2013-06-26 13:55:00,
2013-06-26 10:04:00,79.4,72.3,28.95,NNW,347,4.0,8.0,79,0.00,,,0.00,Wunderground v.1.15,2013-06-26 14:04:00,
2013-06-26 10:09:00,80.3,72.4,28.95,NNW,348,4.0,9.0,77,0.00,,,0.00,Wunderground v.1.15,2013-06-26 14:09:00,
2013-06-26 10:14:00,80.8,72.5,28.94,North,349,4.0,9.0,76,0.00,,,0.00,Wunderground v.1.15,2013-06-26 14:14:00,
2013-06-26 10:19:00,81.2,72.9,28.94,NNW,327,4.0,4.0,76,0.00,,,0.00,Wunderground v.1.15,2013-06-26 14:19:00,
2013-06-26 10:24:00,81.7,73.0,28.94,NW,326,3.0,8.0,75,0.00,,,0.00,Wunderground v.1.15,2013-06-26 14:24:00,
2013-06-26 10:34:00,82.2,73.1,28.94,NNW,340,3.0,8.0,74,0.00,,,0.00,Wunderground v.1.15,2013-06-26 14:34:00,
2013-06-26 10:39:00,82.1,72.6,28.94,NNW,348,4.0,4.0,73,0.00,,,0.00,Wunderground v.1.15,2013-06-26 14:39:00,
2013-06-26 10:44:00,82.3,73.2,28.94,NW,304,4.0,8.0,74,0.00,,,0.01,Wunderground v.1.15,2013-06-26 14:44:00,
2013-06-26 10:49:00,82.5,73.4,28.95,NNW,327,3.0,3.0,74,0.00,,,0.01,Wunderground v.1.15,2013-06-26 14:49:00,
2013-06-26 10:54:00,82.7,73.6,28.95,NNW,331,3.0,8.0,74,0.00,,,0.01,Wunderground v.1.15,2013-06-26 14:54:00,
2013-06-26 10:59:00,82.5,72.6,28.94,North,355,4.0,8.0,72,0.00,,,0.01,Wunderground v.1.15,2013-06-26 14:59:00,
2013-06-26 11:09:00,82.7,72.7,28.95,NNW,335,4.0,8.0,72,0.00,,,0.01,Wunderground v.1.15,2013-06-26 15:09:00,
2013-06-26 11:14:00,82.8,72.8,28.94,NNW,345,5.0,10.0,72,0.00,,,0.01,Wunderground v.1.15,2013-06-26 15:14:00,
2013-06-26 11:19:00,83.2,74.0,28.95,North,355,4.0,8.0,74,0.00,,,0.01,Wunderground v.1.15,2013-06-26 15:19:00,
2013-06-26 11:24:00,83.8,73.4,28.94,NNW,338,4.0,8.0,71,0.00,,,0.01,Wunderground v.1.15,2013-06-26 15:24:00,
2013-06-26 11:29:00,84.2,73.3,28.94,NNE,25,3.0,8.0,70,0.00,,,0.01,Wunderground v.1.15,2013-06-26 15:29:00,
2013-06-26 11:39:00,84.3,73.0,28.95,NNW,337,4.0,4.0,69,0.00,,,0.01,Wunderground v.1.15,2013-06-26 15:39:00,
2013-06-26 11:44:00,84.2,72.9,28.94,NW,312,3.0,8.0,69,0.00,,,0.01,Wunderground v.1.15,2013-06-26 15:44:00,
2013-06-26 11:49:00,84.2,73.3,28.94,NW,309,1.0,1.0,70,0.00,,,0.01,Wunderground v.1.15,2013-06-26 15:49:00,
2013-06-26 11:54:00,84.7,74.3,28.94,NW,305,2.0,3.0,71,0.00,,,0.01,Wunderground v.1.15,2013-06-26 15:54:00,
2013-06-26 11:59:00,84.5,73.2,28.94,NW,309,2.0,2.0,69,0.00,,,0.01,Wunderground v.1.15,2013-06-26 15:59:00,
2013-06-26 12:04:00,84.2,72.9,28.94,North,355,2.0,6.0,69,0.00,,,0.01,Wunderground v.1.15,2013-06-26 16:04:00,
2013-06-26 12:10:00,84.4,73.1,28.94,West,275,3.0,3.0,69,0.00,,,0.01,Wunderground v.1.15,2013-06-26 16:10:00,
2013-06-26 12:15:00,84.8,73.9,28.94,NW,324,2.0,7.0,70,0.00,,,0.01,Wunderground v.1.15,2013-06-26 16:15:00,
2013-06-26 12:20:00,84.7,73.0,28.94,West,279,2.0,8.0,68,0.00,,,0.01,Wunderground v.1.15,2013-06-26 16:20:00,
2013-06-26 12:25:00,84.4,73.5,28.94,WNW,297,2.0,8.0,70,0.00,,,0.01,Wunderground v.1.15,2013-06-26 16:25:00,
2013-06-26 12:30:00,84.5,73.6,28.94,WNW,287,1.0,1.0,70,0.00,,,0.01,Wunderground v.1.15,2013-06-26 16:30:00,
2013-06-26 12:35:00,84.4,73.5,28.94,NW,305,2.0,2.0,70,0.00,,,0.01,Wunderground v.1.15,2013-06-26 16:35:00,
2013-06-26 12:45:00,84.2,72.9,28.94,West,264,2.0,8.0,69,0.00,,,0.01,Wunderground v.1.15,2013-06-26 16:45:00,
2013-06-26 12:50:00,83.7,73.3,28.94,North,355,2.0,8.0,71,0.00,,,0.01,Wunderground v.1.15,2013-06-26 16:50:00,
2013-06-26 12:55:00,84.1,73.3,28.95,West,281,2.0,8.0,70,0.00,,,0.01,Wunderground v.1.15,2013-06-26 16:55:00,
2013-06-26 13:00:00,83.4,72.2,28.94,NNW,348,2.0,8.0,69,0.00,,,0.01,Wunderground v.1.15,2013-06-26 17:00:00,
2013-06-26 13:05:00,83.2,73.2,28.95,WNW,286,1.0,8.0,72,0.00,,,0.01,Wunderground v.1.15,2013-06-26 17:05:00,
2013-06-26 13:15:00,82.9,72.5,28.95,WNW,284,2.0,8.0,71,0.00,,,0.01,Wunderground v.1.15,2013-06-26 17:15:00,
2013-06-26 13:20:00,82.7,72.3,28.95,WNW,298,1.0,1.0,71,0.00,,,0.01,Wunderground v.1.15,2013-06-26 17:20:00,
2013-06-26 13:25:00,82.6,73.1,28.95,NW,308,2.0,2.0,73,0.00,,,0.01,Wunderground v.1.15,2013-06-26 17:25:00,
2013-06-26 13:30:00,82.8,72.8,28.95,WNW,282,2.0,2.0,72,0.00,,,0.01,Wunderground v.1.15,2013-06-26 17:30:00,
2013-06-26 13:35:00,82.6,72.2,28.95,WNW,292,2.0,4.0,71,0.00,,,0.01,Wunderground v.1.15,2013-06-26 17:35:00,
2013-06-26 13:40:00,82.2,72.7,28.95,West,281,1.0,8.0,73,0.00,,,0.01,Wunderground v.1.15,2013-06-26 17:40:00,
2013-06-26 13:45:00,82.2,72.3,28.95,WNW,292,1.0,8.0,72,0.00,,,0.01,Wunderground v.1.15,2013-06-26 17:45:00,
2013-06-26 13:50:00,81.8,71.5,28.95,NW,308,2.0,8.0,71,0.00,,,0.01,Wunderground v.1.15,2013-06-26 17:50:00,
2013-06-26 13:55:00,81.7,72.6,28.95,WNW,300,3.0,8.0,74,0.00,,,0.01,Wunderground v.1.15,2013-06-26 17:55:00,
2013-06-26 14:00:00,81.7,71.8,28.95,West,280,2.0,2.0,72,0.00,,,0.01,Wunderground v.1.15,2013-06-26 18:00:00,
2013-06-26 14:05:00,81.8,72.3,28.95,WNW,300,2.0,4.0,73,0.00,,,0.01,Wunderground v.1.15,2013-06-26 18:05:00,
2013-06-26 14:10:00,81.9,72.0,28.95,WNW,288,2.0,8.0,72,0.00,,,0.01,Wunderground v.1.15,2013-06-26 18:10:00,
2013-06-26 14:20:00,82.0,72.1,28.95,NW,304,3.0,3.0,72,0.00,,,0.01,Wunderground v.1.15,2013-06-26 18:20:00,
2013-06-26 14:25:00,81.8,72.3,28.95,WNW,293,3.0,8.0,73,0.00,,,0.01,Wunderground v.1.15,2013-06-26 18:25:00,
2013-06-26 14:30:00,82.1,72.2,28.95,NW,318,2.0,2.0,72,0.00,,,0.01,Wunderground v.1.15,2013-06-26 18:30:00,
2013-06-26 14:35:00,82.5,73.0,28.95,NNW,335,3.0,3.0,73,0.00,,,0.01,Wunderground v.1.15,2013-06-26 18:35:00,
2013-06-26 14:40:00,82.7,72.7,28.94,NNW,348,3.0,8.0,72,0.00,,,0.01,Wunderground v.1.15,2013-06-26 18:40:00,
2013-06-26 14:45:00,83.1,73.1,28.94,NW,321,2.0,8.0,72,0.00,,,0.01,Wunderground v.1.15,2013-06-26 18:45:00,
2013-06-26 14:54:00,83.9,73.1,28.94,West,267,3.0,8.0,70,0.00,,,0.01,Wunderground v.1.15,2013-06-26 18:54:00,
2013-06-26 14:59:00,83.9,72.6,28.93,NW,319,3.0,3.0,69,0.00,,,0.01,Wunderground v.1.15,2013-06-26 18:59:00,
2013-06-26 15:04:00,84.1,72.8,28.94,NNW,344,2.0,8.0,69,0.00,,,0.01,Wunderground v.1.15,2013-06-26 19:04:00,
2013-06-26 15:09:00,84.5,73.2,28.94,WNW,296,2.0,2.0,69,0.00,,,0.01,Wunderground v.1.15,2013-06-26 19:09:00,
2013-06-26 15:14:00,84.4,73.1,28.94,WNW,296,1.0,8.0,69,0.00,,,0.01,Wunderground v.1.15,2013-06-26 19:14:00,
2013-06-26 15:24:00,84.1,72.4,28.95,NNW,340,2.0,8.0,68,0.00,,,0.01,Wunderground v.1.15,2013-06-26 19:24:00,
2013-06-26 15:29:00,84.5,72.3,28.94,WNW,294,3.0,3.0,67,0.00,,,0.01,Wunderground v.1.15,2013-06-26 19:29:00,
2013-06-26 15:34:00,84.1,72.0,28.94,NNW,338,3.0,4.0,67,0.00,,,0.01,Wunderground v.1.15,2013-06-26 19:34:00,
2013-06-26 15:39:00,84.1,72.4,28.94,NNW,339,2.0,8.0,68,0.00,,,0.01,Wunderground v.1.15,2013-06-26 19:39:00,
2013-06-26 15:44:00,84.3,72.1,28.94,NNW,332,3.0,9.0,67,0.00,,,0.01,Wunderground v.1.15,2013-06-26 19:44:00,
2013-06-26 15:49:00,84.2,72.0,28.94,WNW,297,3.0,3.0,67,0.00,,,0.01,Wunderground v.1.15,2013-06-26 19:49:00,
2013-06-26 15:59:00,83.0,72.2,28.93,West,277,1.0,1.0,70,0.00,,,0.01,Wunderground v.1.15,2013-06-26 19:59:00,
2013-06-26 16:04:00,82.8,72.0,28.94,North,355,1.0,8.0,70,0.00,,,0.01,Wunderground v.1.15,2013-06-26 20:04:00,
2013-06-26 16:09:00,83.0,71.8,28.93,NNW,342,2.0,2.0,69,0.00,,,0.01,Wunderground v.1.15,2013-06-26 20:09:00,
2013-06-26 16:14:00,83.4,72.2,28.93,NW,313,2.0,8.0,69,0.00,,,0.01,Wunderground v.1.15,2013-06-26 20:14:00,
2013-06-26 16:19:00,83.7,72.0,28.93,NNW,343,1.0,8.0,68,0.00,,,0.01,Wunderground v.1.15,2013-06-26 20:19:00,
2013-06-26 16:29:00,83.4,71.7,28.93,NNW,338,2.0,8.0,68,0.00,,,0.01,Wunderground v.1.15,2013-06-26 20:29:00,
2013-06-26 16:34:00,83.6,71.9,28.93,WNW,292,1.0,8.0,68,0.00,,,0.01,Wunderground v.1.15,2013-06-26 20:34:00,
2013-06-26 16:39:00,83.4,72.2,28.93,WNW,296,1.0,1.0,69,0.00,,,0.01,Wunderground v.1.15,2013-06-26 20:39:00,
2013-06-26 16:44:00,83.2,71.5,28.92,WNW,300,1.0,8.0,68,0.00,,,0.01,Wunderground v.1.15,2013-06-26 20:44:00,
2013-06-26 16:49:00,82.5,70.4,28.92,WNW,299,1.0,8.0,67,0.00,,,0.01,Wunderground v.1.15,2013-06-26 20:49:00,
2013-06-26 16:54:00,81.7,70.5,28.92,WNW,302,2.0,8.0,69,0.00,,,0.01,Wunderground v.1.15,2013-06-26 20:54:00,
2013-06-26 17:00:00,81.5,70.3,28.92,WNW,297,2.0,2.0,69,0.00,,,0.01,Wunderground v.1.15,2013-06-26 21:00:00,
2013-06-26 17:05:00,81.8,70.2,28.92,NW,309,2.0,8.0,68,0.00,,,0.01,Wunderground v.1.15,2013-06-26 21:05:00,
2013-06-26 17:10:00,82.1,70.5,28.92,NW,310,2.0,2.0,68,0.00,,,0.01,Wunderground v.1.15,2013-06-26 21:10:00,
2013-06-26 17:15:00,82.1,70.5,28.92,West,277,2.0,3.0,68,0.00,,,0.01,Wunderground v.1.15,2013-06-26 21:15:00,
2013-06-26 17:20:00,81.9,70.7,28.92,WNW,300,1.0,1.0,69,0.00,,,0.01,Wunderground v.1.15,2013-06-26 21:20:00,
2013-06-26 17:30:00,82.0,71.2,28.92,North,350,2.0,8.0,70,0.00,,,0.01,Wunderground v.1.15,2013-06-26 21:30:00,
2013-06-26 17:35:00,82.3,70.7,28.93,WNW,302,3.0,8.0,68,0.00,,,0.01,Wunderground v.1.15,2013-06-26 21:35:00,
2013-06-26 17:40:00,82.5,70.9,28.93,NW,313,3.0,3.0,68,0.00,,,0.01,Wunderground v.1.15,2013-06-26 21:40:00,
2013-06-26 17:45:00,82.4,70.3,28.92,WNW,292,1.0,8.0,67,0.00,,,0.01,Wunderground v.1.15,2013-06-26 21:45:00,
2013-06-26 17:50:00,82.4,71.2,28.92,NW,319,1.0,8.0,69,0.00,,,0.01,Wunderground v.1.15,2013-06-26 21:50:00,
2013-06-26 17:55:00,82.3,69.8,28.92,WNW,285,2.0,8.0,66,0.00,,,0.01,Wunderground v.1.15,2013-06-26 21:55:00,
2013-06-26 18:05:00,81.7,69.2,28.92,NNW,328,1.0,4.0,66,0.00,,,0.01,Wunderground v.1.15,2013-06-26 22:05:00,
2013-06-26 18:10:00,81.3,68.9,28.92,WNW,286,1.0,1.0,66,0.00,,,0.01,Wunderground v.1.15,2013-06-26 22:10:00,
2013-06-26 18:15:00,81.0,69.4,28.92,NW,309,1.0,8.0,68,0.00,,,0.01,Wunderground v.1.15,2013-06-26 22:15:00,
2013-06-26 18:20:00,80.8,68.8,28.92,WNW,303,1.0,1.0,67,0.00,,,0.01,Wunderground v.1.15,2013-06-26 22:20:00,
2013-06-26 18:25:00,80.5,68.5,28.92,WNW,298,1.0,4.0,67,0.00,,,0.01,Wunderground v.1.15,2013-06-26 22:25:00,
2013-06-26 18:30:00,80.1,68.2,28.92,NW,304,1.0,1.0,67,0.00,,,0.01,Wunderground v.1.15,2013-06-26 22:30:00,
2013-06-26 18:39:00,79.9,68.4,28.92,WNW,288,1.0,1.0,68,0.00,,,0.01,Wunderground v.1.15,2013-06-26 22:39:00,
2013-06-26 18:45:00,79.6,67.7,28.92,WNW,298,1.0,2.0,67,0.00,,,0.01,Wunderground v.1.15,2013-06-26 22:45:00,
2013-06-26 18:49:00,79.5,67.6,28.92,NW,305,1.0,1.0,67,0.00,,,0.01,Wunderground v.1.15,2013-06-26 22:49:00,
2013-06-26 18:54:00,79.6,68.1,28.92,NW,321,1.0,8.0,68,0.00,,,0.01,Wunderground v.1.15,2013-06-26 22:54:00,
2013-06-26 19:00:00,79.8,68.7,28.92,WNW,300,0.0,8.0,69,0.00,,,0.01,Wunderground v.1.15,2013-06-26 23:00:00,
2013-06-26 19:09:00,79.7,68.2,28.92,NNW,335,0.0,8.0,68,0.00,,,0.01,Wunderground v.1.15,2013-06-26 23:09:00,
2013-06-26 19:14:00,79.6,68.1,28.92,WNW,293,0.0,8.0,68,0.00,,,0.01,Wunderground v.1.15,2013-06-26 23:14:00,
2013-06-26 19:19:00,79.4,67.9,28.92,WNW,294,1.0,8.0,68,0.00,,,0.01,Wunderground v.1.15,2013-06-26 23:19:00,
2013-06-26 19:24:00,79.1,67.6,28.92,NW,307,1.0,8.0,68,0.00,,,0.01,Wunderground v.1.15,2013-06-26 23:24:00,
2013-06-26 19:29:00,78.9,67.9,28.92,NNW,330,1.0,8.0,69,0.00,,,0.01,Wunderground v.1.15,2013-06-26 23:29:00,
2013-06-26 19:34:00,78.7,67.7,28.92,WNW,303,1.0,8.0,69,0.00,,,0.01,Wunderground v.1.15,2013-06-26 23:34:00,
2013-06-26 19:44:00,78.1,67.1,28.92,WNW,295,1.0,8.0,69,0.00,,,0.01,Wunderground v.1.15,2013-06-26 23:44:00,
2013-06-26 19:49:00,77.8,67.2,28.92,WNW,290,0.0,8.0,70,0.00,,,0.01,Wunderground v.1.15,2013-06-26 23:49:00,
2013-06-26 19:54:00,77.3,66.3,28.92,WNW,298,0.0,8.0,69,0.00,,,0.01,Wunderground v.1.15,2013-06-26 23:54:00,
2013-06-26 19:59:00,77.0,66.0,28.92,WNW,298,1.0,1.0,69,0.00,,,0.01,Wunderground v.1.15,2013-06-26 23:59:00,
2013-06-26 20:04:00,76.8,66.3,28.92,NW,308,0.0,8.0,70,0.00,,,0.01,Wunderground v.1.15,2013-06-27 00:04:00,
2013-06-26 20:14:00,76.4,65.9,28.92,WNW,301,0.0,8.0,70,0.00,,,0.01,Wunderground v.1.15,2013-06-27 00:14:00,
2013-06-26 20:19:00,76.1,65.6,28.91,WNW,298,0.0,8.0,70,0.00,,,0.01,Wunderground v.1.15,2013-06-27 00:19:00,
2013-06-26 20:24:00,75.8,65.3,28.91,WNW,296,1.0,8.0,70,0.00,,,0.01,Wunderground v.1.15,2013-06-27 00:24:00,
2013-06-26 20:29:00,75.6,65.5,28.91,WNW,298,1.0,1.0,71,0.00,,,0.01,Wunderground v.1.15,2013-06-27 00:29:00,
2013-06-26 20:34:00,75.4,65.7,28.91,WNW,294,0.0,8.0,72,0.00,,,0.01,Wunderground v.1.15,2013-06-27 00:34:00,
2013-06-26 20:39:00,75.2,65.6,28.91,WNW,298,0.0,8.0,72,0.00,,,0.01,Wunderground v.1.15,2013-06-27 00:39:00,
2013-06-26 20:49:00,74.8,65.6,28.91,WNW,300,0.0,8.0,73,0.00,,,0.01,Wunderground v.1.15,2013-06-27 00:49:00,
2013-06-26 20:54:00,74.6,65.8,28.91,WNW,300,0.0,8.0,74,0.00,,,0.01,Wunderground v.1.15,2013-06-27 00:54:00,
2013-06-26 20:59:00,74.4,66.0,28.91,NW,310,0.0,8.0,75,0.00,,,0.01,Wunderground v.1.15,2013-06-27 00:59:00,
2013-06-26 21:04:00,74.2,65.8,28.92,NW,311,0.0,8.0,75,0.00,,,0.01,Wunderground v.1.15,2013-06-27 01:04:00,
2013-06-26 21:09:00,73.9,65.5,28.92,NW,304,0.0,8.0,75,0.00,,,0.01,Wunderground v.1.15,2013-06-27 01:09:00,
2013-06-26 21:15:00,73.7,65.7,28.92,WNW,300,0.0,8.0,76,0.00,,,0.01,Wunderground v.1.15,2013-06-27 01:15:00,
2013-06-26 21:20:00,73.5,65.5,28.92,NW,316,0.0,8.0,76,0.00,,,0.01,Wunderground v.1.15,2013-06-27 01:20:00,
2013-06-26 21:25:00,73.3,65.7,28.92,NW,317,0.0,8.0,77,0.00,,,0.01,Wunderground v.1.15,2013-06-27 01:25:00,
2013-06-26 21:30:00,73.1,65.5,28.92,NW,323,0.0,8.0,77,0.00,,,0.01,Wunderground v.1.15,2013-06-27 01:30:00,
2013-06-26 21:35:00,72.9,65.3,28.92,NW,325,0.0,8.0,77,0.00,,,0.01,Wunderground v.1.15,2013-06-27 01:35:00,
2013-06-26 21:40:00,72.8,65.5,28.92,WNW,293,0.0,8.0,78,0.00,,,0.01,Wunderground v.1.15,2013-06-27 01:40:00,
2013-06-26 21:50:00,72.6,65.3,28.93,WNW,300,0.0,8.0,78,0.00,,,0.01,Wunderground v.1.15,2013-06-27 01:50:00,
2013-06-26 21:55:00,72.5,65.2,28.93,WNW,300,0.0,8.0,78,0.00,,,0.01,Wunderground v.1.15,2013-06-27 01:55:00,
2013-06-26 22:00:00,72.4,65.2,28.93,WNW,296,0.0,8.0,78,0.00,,,0.01,Wunderground v.1.15,2013-06-27 02:00:00,
2013-06-26 22:05:00,72.3,65.4,28.93,WNW,298,0.0,8.0,79,0.00,,,0.01,Wunderground v.1.15,2013-06-27 02:05:00,
2013-06-26 22:10:00,72.1,65.2,28.93,WNW,291,0.0,8.0,79,0.00,,,0.01,Wunderground v.1.15,2013-06-27 02:10:00,
2013-06-26 22:15:00,72.1,65.2,28.93,WNW,303,0.0,8.0,79,0.00,,,0.01,Wunderground v.1.15,2013-06-27 02:15:00,
2013-06-26 22:24:00,72.0,65.1,28.93,NW,318,1.0,8.0,79,0.00,,,0.01,Wunderground v.1.15,2013-06-27 02:24:00,
2013-06-26 22:29:00,71.9,65.0,28.94,WNW,296,1.0,1.0,79,0.00,,,0.01,Wunderground v.1.15,2013-06-27 02:29:00,
2013-06-26 22:34:00,71.9,65.0,28.94,WNW,297,1.0,4.0,79,0.00,,,0.01,Wunderground v.1.15,2013-06-27 02:34:00,
2013-06-26 22:39:00,72.0,65.1,28.94,West,271,1.0,8.0,79,0.00,,,0.01,Wunderground v.1.15,2013-06-27 02:39:00,
2013-06-26 22:44:00,72.1,65.2,28.94,West,279,2.0,8.0,79,0.00,,,0.01,Wunderground v.1.15,2013-06-27 02:44:00,
2013-06-26 22:54:00,72.3,65.1,28.94,WNW,290,2.0,8.0,78,0.00,,,0.01,Wunderground v.1.15,2013-06-27 02:54:00,
2013-06-26 22:59:00,72.4,65.2,28.93,NW,304,2.0,2.0,78,0.00,,,0.01,Wunderground v.1.15,2013-06-27 02:59:00,
2013-06-26 23:04:00,72.4,65.5,28.93,NW,308,2.0,8.0,79,0.00,,,0.01,Wunderground v.1.15,2013-06-27 03:04:00,
2013-06-26 23:09:00,72.3,65.4,28.93,WNW,300,2.0,8.0,79,0.00,,,0.01,Wunderground v.1.15,2013-06-27 03:09:00,
2013-06-26 23:14:00,72.2,65.3,28.93,West,281,3.0,8.0,79,0.00,,,0.01,Wunderground v.1.15,2013-06-27 03:14:00,
2013-06-26 23:19:00,72.1,65.2,28.93,WNW,289,3.0,3.0,79,0.00,,,0.01,Wunderground v.1.15,2013-06-27 03:19:00,
2013-06-26 23:29:00,71.8,65.3,28.93,WNW,296,2.0,2.0,80,0.00,,,0.01,Wunderground v.1.15,2013-06-27 03:29:00,
2013-06-26 23:34:00,71.6,65.1,28.93,WNW,296,1.0,4.0,80,0.00,,,0.01,Wunderground v.1.15,2013-06-27 03:34:00,
2013-06-26 23:39:00,71.4,65.3,28.94,WNW,283,1.0,1.0,81,0.00,,,0.01,Wunderground v.1.15,2013-06-27 03:39:00,
2013-06-26 23:44:00,71.3,65.2,28.94,WNW,294,2.0,2.0,81,0.00,,,0.01,Wunderground v.1.15,2013-06-27 03:44:00,
2013-06-26 23:49:00,71.2,65.4,28.94,WNW,292,1.0,1.0,82,0.00,,,0.01,Wunderground v.1.15,2013-06-27 03:49:00,